Back to catalog

STARLINK-37109

AliveCommunicationsSSO
NORAD 68666·PAYLOAD·🇺🇸 United States

Launched Apr 11, 2026 from Vandenberg Space Force Base

Loading…

Next Passes (next 24 hours)

TLE

FreshSource: CelesTrak SupGP

Epoch: Sep 14, 2026, 21:15 UTC

1 68666C 26077E   26257.88590278 -.00003832  00000+0 -11902-3 0  2573
2 68666  97.2847 127.8152 0001757  94.1205 122.9589 15.33422439    11

Track STARLINK-37109 in real time with AllMySat

Download on the App Store